EW2724 Weather Reports


time (UTC)temp
C
wind
direction
speed
KPH
gust
KPH
rain 1hr
cm
rain 24hr
cm
rain mn
cm
humidity
%
barometer
mb
20260906051514 22 124 0.0 0.0 0.00 0.58 0.00 94 1013.3
20260906050012 22 124 0.0 0.0 0.00 0.58 0.00 93 1013.2
20260906044513 22 124 0.0 0.0 0.00 0.58 0.00 93 1013.2
20260906043013 22 124 0.0 0.0 0.00 0.58 0.00 93 1013.2
20260906041514 22 124 0.0 0.0 0.00 0.58 0.00 93 1013.3
20260906040026 22 124 0.0 0.0 0.00 0.58 0.00 93 1013.3
20260906034519 23 124 0.0 0.0 0.00 0.58 0.58 94 1013.4
20260906033033 23 124 0.0 0.0 0.00 0.58 0.58 93 1013.4
20260906031510 23 124 0.0 0.0 0.00 0.58 0.58 94 1013.6
20260906030014 23 124 0.0 0.0 0.00 0.58 0.58 93 1013.6
20260906024518 23 124 0.0 0.0 0.00 0.58 0.58 93 1013.5
20260906023018 23 124 0.0 0.0 0.00 0.58 0.58 93 1013.3
20260906021524 23 124 0.0 0.0 0.00 0.58 0.58 93 1013.5
20260906020010 23 124 0.0 0.0 0.00 0.58 0.58 93 1013.6
20260906014517 23 343 0.0 0.0 0.00 0.58 0.58 93 1013.2
20260906013023 23 343 0.0 0.0 0.00 0.58 0.58 92 1013.1
20260906011524 23 343 0.0 0.0 0.00 0.58 0.58 91 1012.9
20260906010011 23 343 0.0 0.0 0.00 0.58 0.58 91 1012.7
20260906004514 24 343 0.0 0.0 0.00 0.58 0.58 91 1012.5
20260906003020 24 343 0.0 0.0 0.00 0.58 0.58 90 1012.4
20260906001504 24 343 0.0 0.0 0.00 0.58 0.58 89 1012.5
20260906000004 25 343 0.0 0.0 0.00 0.58 0.58 88 1012.3
20260905234509 25 343 0.0 0.0 0.00 0.58 0.58 88 1012.3
20260905233015 25 343 0.0 0.0 0.00 0.58 0.58 88 1012.3
20260905231526 25 343 0.0 0.0 0.00 0.58 0.58 87 1012.1
20260905230004 25 345 0.0 0.0 0.00 0.58 0.58 86 1012.2
20260905224511 25 345 0.0 0.0 0.00 0.58 0.58 87 1012.0
20260905223013 25 345 0.0 0.0 0.00 0.58 0.58 88 1012.0
20260905221518 25 345 0.0 0.0 0.00 0.58 0.58 87 1012.0
20260905220024 24 345 0.0 0.0 0.00 0.58 0.58 87 1012.1
20260905214504 25 345 0.0 0.0 0.00 0.58 0.58 87 1012.2
20260905213009 25 345 0.0 0.0 0.00 0.58 0.58 87 1012.3
20260905211535 24 345 0.0 3.2 0.00 0.58 0.58 84 1012.5
20260905210038 23 84 0.0 1.6 0.00 0.58 0.58 88 1012.7
20260905204529 23 355 1.6 3.2 0.03 0.58 0.58 88 1013.0
20260905203034 23 68 0.0 3.2 0.13 0.58 0.58 89 1013.3
20260905201510 23 75 0.0 4.8 0.58 0.58 0.58 92 1013.6
20260905200026 24 74 1.6 6.4 0.58 0.58 0.58 92 1013.0
20260905194526 23 103 1.6 3.2 0.56 0.56 0.56 90 1012.8
20260905193027 25 12 1.6 14.5 0.46 0.46 0.46 84 1014.1
20260905191532 30 311 4.8 14.5 0.00 0.00 0.00 66 1013.5
20260905190012 33 3 0.0 1.6 0.00 0.00 0.00 58 1012.6
20260905184527 33 56 0.0 0.0 0.00 0.00 0.00 55 1012.8
20260905183027 34 26 0.0 0.0 0.00 0.00 0.00 54 1012.9
20260905181531 34 51 0.0 0.0 0.00 0.00 0.00 53 1012.7
20260905180037 33 59 0.0 4.8 0.00 0.00 0.00 51 1013.0
20260905174516 33 244 0.0 6.4 0.00 0.00 0.00 55 1013.2
20260905173021 33 103 0.0 6.4 0.00 0.00 0.00 56 1013.5
20260905171530 33 349 0.0 4.8 0.00 0.00 0.00 57 1013.8
20260905170030 33 349 0.0 6.4 0.00 0.00 0.00 60 1014.0
20260905164534 32 58 0.0 0.0 0.00 0.00 0.00 60 1014.1
20260905163017 32 351 1.6 4.8 0.00 0.00 0.00 62 1014.3
20260905161524 31 349 0.0 0.0 0.00 0.00 0.00 64 1014.4
20260905160004 31 347 0.0 3.2 0.00 0.00 0.00 65 1014.6
20260905154511 31 233 0.0 4.8 0.00 0.00 0.00 66 1014.7
20260905153019 30 247 0.0 0.0 0.00 0.00 0.00 68 1014.8
20260905151522 30 244 0.0 3.2 0.00 0.00 0.00 68 1014.7
20260905150027 30 239 1.6 6.4 0.00 0.00 0.00 71 1014.7
20260905144521 29 250 0.0 0.0 0.00 0.00 0.00 73 1014.7
20260905143009 28 239 0.0 0.0 0.00 0.00 0.00 73 1014.9
20260905141515 28 231 0.0 0.0 0.00 0.00 0.00 76 1014.8
20260905140023 27 231 0.0 0.0 0.00 0.00 0.00 76 1015.0
20260905134529 27 239 0.0 0.0 0.00 0.00 0.00 78 1015.1
20260905133006 27 236 0.0 0.0 0.00 0.00 0.00 80 1015.3
20260905131517 26 236 0.0 0.0 0.00 0.00 0.00 81 1015.4
20260905130019 26 236 0.0 0.0 0.00 0.00 0.00 83 1015.3
20260905124526 25 233 0.0 0.0 0.00 0.00 0.00 85 1015.2
20260905123030 24 233 0.0 0.0 0.00 0.00 0.00 87 1015.1
20260905121508 24 216 0.0 0.0 0.00 0.00 0.00 88 1015.1
20260905120017 23 80 0.0 0.0 0.00 0.00 0.00 89 1015.1
20260905114523 23 79 0.0 0.0 0.00 0.00 0.00 90 1014.9
20260905113026 23 79 0.0 0.0 0.00 0.00 0.00 90 1014.6
20260905111531 23 79 0.0 0.0 0.00 0.00 0.00 89 1014.4
20260905110037 23 79 0.0 0.0 0.00 0.00 0.00 89 1014.0
20260905104515 23 79 0.0 0.0 0.00 0.00 0.00 88 1014.0
20260905103023 23 79 0.0 0.0 0.00 0.00 0.00 88 1013.9
20260905101533 23 79 0.0 0.0 0.00 0.00 0.00 88 1013.8
20260905100008 23 79 0.0 0.0 0.00 0.00 0.00 88 1013.8
20260905094502 23 79 0.0 0.0 0.00 0.00 0.00 88 1013.8
20260905093004 23 79 0.0 0.0 0.00 0.00 0.00 87 1013.7
20260905091504 24 80 0.0 0.0 0.00 0.00 0.00 86 1013.7
20260905090008 24 80 0.0 0.0 0.00 0.00 0.00 86 1013.7
20260905084511 24 80 0.0 0.0 0.00 0.00 0.00 85 1013.8
20260905083005 24 80 0.0 0.0 0.00 0.00 0.00 86 1014.0
20260905081504 24 80 0.0 0.0 0.00 0.00 0.00 85 1014.0
20260905080006 25 80 0.0 0.0 0.00 0.00 0.00 84 1014.1
20260905074510 25 80 0.0 0.0 0.00 0.00 0.00 83 1014.3
20260905073011 25 80 0.0 0.0 0.00 0.00 0.00 83 1014.3
20260905071517 25 80 0.0 0.0 0.00 0.00 0.00 82 1014.7
20260905070004 25 80 0.0 0.0 0.00 0.00 0.00 81 1014.6
20260905064508 26 80 0.0 0.0 0.00 0.00 0.00 80 1015.0
20260905063008 26 80 0.0 0.0 0.00 0.00 0.00 79 1014.9
20260905061512 26 80 0.0 0.0 0.00 0.00 0.00 79 1015.2
20260905060034 26 75 0.0 0.0 0.00 0.00 0.00 79 1015.3
20260905054509 26 75 0.0 0.0 0.00 0.00 0.00 80 1015.4
20260905053006 26 75 0.0 0.0 0.00 0.00 0.00 81 1015.4